Location: ?????
(33.6267°N, 35.4675°E)
Time: 22:45:53
(UTC+00:00)

Cosmos 2084 - Pass Details

Date: 12 November 2019
Orbit: 557 x 626 km, 62.8° (Epoch: 06 December)

Event Time Altitude Azimuth Distance (km) Brightness Sun altitude
Rises 15:52:20 0° 337° (NNW) 2,811 7.1 -15.8°
Reaches altitude 10° 15:54:44 10° 346° (NNW) 1,895 6.1 -16.3°
Maximum altitude 15:58:43 37° 54° (NE) 898 3.9 -17.1°
Enters shadow 15:59:13 35° 71° (ENE) 921 3.9 -17.2°
